Flag for U.S.A. Weather past 2 weeks in Monterey, California, U.S.A.

Now
68 °F

Overcast.


Feels Like: 68 °F
Forecast: 60 / 66 °F
Wind: 12 mph from Southwest

Location: Monterey Peninsula Airport

Current Time: Sep 20, 2014 at 3:18:46 PM

Latest Report: Sep 20, 2014 at 2:54 PM


Visibility: 10 mi

Pressure: 29.96 "Hg

Humidity: 70%

Dew point: 58 °F

Location of MontereyLocation

Historic Weather in Monterey — Graph

°F

Monterey temperature yesterday

Maximum temperature yesterday: 73 °F (at 12:54 PM)
Minimum temperature yesterday: 60 °F (at 3:54 AM)
Average temperature yesterday: 66 °F

Past Weeks' High & Low Weather Summary

 TemperatureHumidityPressure
High76 °F (Sep 18, 12:54 PM)100% (Sep 10, 6:54 AM)30.05 "Hg (Sep 10, 6:54 AM)
Low52 °F (Sep 10, 2:54 AM)43% (Sep 15, 5:54 PM)29.82 "Hg (Sep 17, 5:54 PM)
Average63 °F77%29.92 "Hg
* Reported Sep 5 12:54 PM — Sep 20 12:54 PM, Monterey, Weather by CustomWeather, © 2014

Note: Actual official high and low records may vary slightly from our data, if they occured in-between our weather recording intervals... More about our weather records

Advertising

Monterey weather history for previous 24 hours

 ConditionsComfort  
Time TempWeatherWind HumidityBarometerVisibility
12:54 PM
Sep 20
68 °FPartly sunny.12 mph73%29.99 "Hg10 mi
11:54 AM65 °FLow clouds.5 mph81%30.00 "Hg10 mi
10:54 AM65 °FLow clouds.6 mph81%30.00 "Hg10 mi
5:54 AM62 °FLow clouds.3 mph90%29.94 "Hg9 mi
4:54 AM62 °FLow clouds.No wind90%29.93 "Hg8 mi
3:54 AM62 °FLow clouds.5 mph90%29.93 "Hg10 mi
2:54 AM63 °FLow clouds.6 mph87%29.94 "Hg10 mi
1:54 AM63 °FLow clouds.5 mph90%29.94 "Hg10 mi
12:54 AM63 °FLow clouds.3 mph87%29.95 "Hg10 mi
11:54 PM
Sep 19
63 °FLow clouds.3 mph87%29.95 "Hg10 mi
10:54 PM64 °FLow clouds.No wind84%29.95 "Hg10 mi
9:54 PM64 °FLow clouds.3 mph84%29.95 "Hg10 mi
8:54 PM64 °FLow clouds.3 mph84%29.95 "Hg10 mi
7:54 PM64 °FLow clouds.5 mph87%29.93 "Hg10 mi
6:54 PM64 °FLow clouds.No wind87%29.92 "Hg10 mi
5:54 PM66 °FLow clouds.7 mph81%29.92 "Hg10 mi
4:54 PM67 °FScattered clouds.7 mph79%29.92 "Hg10 mi
3:54 PM69 °FSunny.12 mph70%29.92 "Hg10 mi
Weather by CustomWeather, © 2014

See weather overviewHow to use our weather pages